Regional Weather Roundup
Issued by NWS

Home | Current Version | Previous Version | Graphics & Text | Print | Product List | Glossary On
Versions: 1 2 3 4 5 6 7 8 9 10 11 12 13 14 15 16 17 18 19 20 21 22 23 24 25 26 27 28 29 30 31 32 33 34 35 36 37 38 39 40 41 42 43 44 45 46 47 48 49 50
000
ASUS43 KLMK 182202
RWRKY
KENTUCKY REGIONAL WEATHER ROUNDUP
NATIONAL WEATHER SERVICE LOUISVILLE KY
600 PM EDT WED OCT 18 2017

NOTE "FAIR" INDICATES FEW OR NO CLOUDS BELOW 12,000 FEET
WITH NO SIGNIFICANT WEATHER AND/OR OBSTRUCTIONS TO VISIBILITY.

KYZ001>023-026-027-061>063-070>075-182300-
WESTERN AND SOUTH CENTRAL KENTUCKY

CITY           SKY/WX    TMP DP  RH WIND       PRES   REMARKS
PADUCAH        SUNNY     71  45  39 S6        30.17S
HENDERSON      SUNNY     71  47  42 S10       30.18F
OWENSBORO      SUNNY     71  48  43 S13       30.19F
HOPKINSVILLE   SUNNY     71  44  38 S5        30.20F
BOWLING GREEN  SUNNY     70  45  40 S8        30.22F
GLASGOW        NOT AVBL
$$

KYZ024-025-028>034-038-045-046-053-182300-
NORTH CENTRAL KENTUCKY

CITY           SKY/WX    TMP DP  RH WIND       PRES   REMARKS
LOUISVILLE/SDF MOSUNNY   70  45  40 S10       30.21S
LOUISVILLE/LOU SUNNY     69  46  43 S8        30.22S
FORT KNOX      SUNNY     67  43  41 S7        30.20F
$$

KYZ035>037-039>044-047>052-055>060-089>105-182300-
NORTHEAST KENTUCKY

CITY           SKY/WX    TMP DP  RH WIND       PRES   REMARKS
LEXINGTON      CLEAR     67  46  47 S9        30.23F
COVINGTON      PTCLDY    65  43  44 S9        30.21S
FRANKFORT      CLEAR     68  43  40 SW7       30.22S
$$

KYZ054-064>069-076>088-106>120-182300-
SOUTHEAST KENTUCKY

CITY           SKY/WX    TMP DP  RH WIND       PRES   REMARKS
JACKSON        CLEAR     66  41  40 CALM      30.26S
LONDON         CLEAR     67  43  41 CALM      30.26S
SOMERSET       NOT AVBL
MIDDLESBORO    CLEAR     67  46  47 CALM      30.27S
MONTICELLO     PTCLDY    68  46  45 VRB7      30.27S
$$





USA.gov is the U.S. government's official web portal to all federal, state and local government web resources and services.